Location: Cottbus
(51.7000°N, 14.3000°E)
Time: 19:25:04
(UTC+02:00)

ISS - Visible Passes

Search period start: 23 October 2017 00:00
Search period end: 01 November 2017 23:00
Orbit: 400 x 408 km, 51.6° (Epoch: 24 October)

Date Brightness Start Highest point End Pass type
(mag) Time Alt. Az. Time Alt. Az. Time Alt. Az.
30 Oct -0.9 05:56:34 10° S 05:58:44 17° SE 06:00:56 10° E visible
31 Oct -0.6 05:05:47 10° SSE 05:06:34 11° SE 05:07:21 10° ESE visible
01 Nov -2.0 05:47:12 10° SSW 05:50:04 29° SSE 05:52:56 10° E visible
